Weather History for Oceana NAS, VA

Change the Weather History Date:

Thursday, November 1, 2012

  Actual Average Record
Temperature  
Mean Temperature 48 °F -  
Max Temperature 57 °F 62 °F 79 °F (2013)
Min Temperature 42 °F 45 °F 37 °F (2002)
Degree Days  
Heating Degree Days 16    
Moisture  
Dew Point 38 °F    
Average Humidity 65    
Maximum Humidity 82    
Minimum Humidity 49    
Precipitation  
Precipitation 0.00 in - - ()
Sea Level Pressure  
Sea Level Pressure 29.73 in    
Wind  
Wind Speed 8 mph (WSW)    
Max Wind Speed 12 mph    
Max Gust Speed 17 mph    
Visibility 10 miles    
Events      
Averages and records for this station are not official NWS values.
T = Trace of Precipitation, MM = Missing Value Source: NWS Daily Summary

Daily Weather History Graph

Daily Weather History Graph

Search for Another Location

Airport:

Trip Planner

Search our weather history database for the weather conditions in past years. The results will help you decide how hot, cold, wet, or windy it might be!

Date:

Astronomy

Nov. 01, 2012 Rise Set
Actual Time 7:28 AM EDT 6:06 PM EDT
Civil Twilight 7:01 AM EDT 6:33 PM EDT
Nautical Twilight 6:30 AM EDT 7:03 PM EDT
Astronomical Twilight 6:00 AM EDT 7:34 PM EDT
Moon 8:04 PM EDT (11/1) 9:55 AM EDT (11/1)
Length of Visible Light 11h 31m
Length of Day
10h 38m
Waning Gibbous, 93% of the Moon is Illuminated
Nov 1
Waning Gibbous
Nov 6
Last Quarter
Nov 13
New
Nov 20
First Quarter
Nov 28
Full

Hourly Weather History & Observations

Time (EDT) Temp. Windchill Dew Point Humidity Pressure Visibility Wind Dir Wind Speed Gust Speed Precip Events Conditions
12:56 AM 45.0 °F 41.2 °F 37.9 °F 76% 29.72 in 10.0 mi WSW 6.9 mph - N/A   Scattered Clouds
1:56 AM 46.0 °F 42.5 °F 37.9 °F 73% 29.72 in 10.0 mi SW 6.9 mph - N/A   Mostly Cloudy
2:56 AM 46.0 °F 41.9 °F 37.0 °F 71% 29.72 in 10.0 mi SW 8.1 mph - N/A   Mostly Cloudy
3:56 AM 43.0 °F 38.2 °F 37.0 °F 80% 29.72 in 10.0 mi SW 8.1 mph - N/A   Mostly Cloudy
4:56 AM 43.0 °F 39.5 °F 37.0 °F 80% 29.71 in 10.0 mi WSW 5.8 mph - N/A   Mostly Cloudy
5:56 AM 42.1 °F 38.4 °F 37.0 °F 82% 29.72 in 10.0 mi SW 5.8 mph - N/A   Mostly Cloudy
6:56 AM 43.0 °F 40.3 °F 37.9 °F 82% 29.72 in 10.0 mi SW 4.6 mph - N/A   Mostly Cloudy
7:56 AM 44.1 °F 40.1 °F 39.0 °F 82% 29.73 in 10.0 mi SW 6.9 mph - N/A   Mostly Cloudy
8:56 AM 46.0 °F 41.4 °F 39.0 °F 76% 29.74 in 10.0 mi WSW 9.2 mph - N/A   Mostly Cloudy
9:56 AM 48.9 °F - 39.0 °F 69% 29.74 in 10.0 mi West 10.4 mph - N/A   Mostly Cloudy
10:56 AM 52.0 °F - 37.9 °F 59% 29.75 in 10.0 mi West 10.4 mph - N/A   Mostly Cloudy
11:56 AM 54.0 °F - 36.0 °F 51% 29.74 in 10.0 mi WNW 9.2 mph - N/A   Mostly Cloudy
12:56 PM 54.0 °F - 37.0 °F 53% 29.72 in 10.0 mi West 8.1 mph - N/A   Mostly Cloudy
1:56 PM 55.9 °F - 37.0 °F 49% 29.70 in 10.0 mi West 6.9 mph 17.3 mph N/A   Mostly Cloudy
2:56 PM 55.0 °F - 37.0 °F 51% 29.69 in 10.0 mi NW 9.2 mph - N/A   Mostly Cloudy
3:56 PM 55.0 °F - 37.9 °F 53% 29.69 in 10.0 mi West 6.9 mph - N/A   Mostly Cloudy
4:56 PM 55.0 °F - 37.9 °F 53% 29.70 in 10.0 mi West 11.5 mph - N/A   Mostly Cloudy
5:56 PM 54.0 °F - 39.0 °F 57% 29.71 in 10.0 mi WSW 6.9 mph - N/A   Mostly Cloudy
6:56 PM 52.0 °F - 41.0 °F 66% 29.74 in 10.0 mi WSW 5.8 mph - N/A   Mostly Cloudy
7:56 PM 53.1 °F - 39.9 °F 61% 29.74 in 10.0 mi West 6.9 mph - N/A   Mostly Cloudy
8:56 PM 52.0 °F - 39.0 °F 61% 29.75 in 10.0 mi West 9.2 mph - N/A   Mostly Cloudy
9:56 PM 51.1 °F - 37.0 °F 59% 29.77 in 10.0 mi West 10.4 mph - N/A   Mostly Cloudy
10:56 PM 50.0 °F - 37.0 °F 61% 29.78 in 10.0 mi West 6.9 mph - N/A   Mostly Cloudy
11:56 PM 50.0 °F - 37.0 °F 61% 29.78 in 10.0 mi West 8.1 mph - N/A   Mostly Cloudy